Fairfield, IL

3:24 PM CST on December 06, 2019 (GMT -0600)
Fairfield Municipal

Weather History for KFWC - November, 2019

Change the Weather History Date:

Tuesday, November 12, 2019

  Actual Average (WUND) Record (WUND)
Temperature  
Mean Temperature 13 °F -  
Max Temperature 19 °F - - (-1)
Min Temperature 7 °F - - (-1)
Degree Days  
Heating Degree Days 52    
Moisture  
Dew Point 4 °F    
Average Humidity 67    
Maximum Humidity 93    
Minimum Humidity 48    
Precipitation  
Precipitation 0.00 in - - ()
Sea Level Pressure  
Sea Level Pressure 30.52 in    
Wind  
Wind Speed 4 mph ()    
Max Wind Speed 8 mph    
Max Gust Speed -    
Visibility 9.9 miles    
Events      
Averages and records for this station are not official NWS values.
T = Trace of Precipitation, MM = Missing Value Source: Averaged Metar Reports

Daily Weather History Graph

Daily Weather History Graph

Search for Another Location

Airport or City:

Astronomy

Nov. 12, 2019 Rise Set
Actual Time 6:31 AM CST 4:43 PM CST
Civil Twilight 6:03 AM CST 5:11 PM CST
Nautical Twilight 5:31 AM CST 5:43 PM CST
Astronomical Twilight 5:00 AM CST 6:14 PM CST
Moon 5:10 PM CST (11/12) 6:23 AM CST (11/12)
Length of Visible Light 11h 07m
Length of Day
10h 11m
Full, 100% of the Moon is Illuminated
Nov 12
Full
Nov 19
Last Quarter
Nov 26
New
Dec 4
First Quarter
Dec 11
Full

Hourly Weather History & Observations

Time (CST) Temp. Windchill Dew Point Humidity Pressure Visibility Wind Dir Wind Speed Gust Speed Precip Events Conditions
12:15 AM 18.0 °F 8.7 °F 8.6 °F 67% 30.45 in 10.0 mi NNW 6.9 mph - N/A   Clear
12:35 AM 17.6 °F 7.3 °F 8.4 °F 67% 30.45 in 10.0 mi NNW 8.1 mph - N/A   Clear
1:15 AM 16.7 °F 8.3 °F 8.2 °F 69% 30.46 in 10.0 mi NNW 5.8 mph - N/A   Clear
1:35 AM 16.3 °F 6.7 °F 7.7 °F 69% 30.46 in 10.0 mi NW 6.9 mph - N/A   Clear
1:55 AM 15.8 °F 6.1 °F 7.2 °F 69% 30.47 in 10.0 mi NNW 6.9 mph - N/A   Clear
2:15 AM 15.6 °F 7.0 °F 6.8 °F 68% 30.47 in 10.0 mi NW 5.8 mph - N/A   Clear
2:35 AM 15.3 °F 6.6 °F 6.4 °F 68% 30.48 in 10.0 mi NNW 5.8 mph - N/A   Clear
2:55 AM 14.9 °F 7.5 °F 6.3 °F 69% 30.48 in 10.0 mi NNW 4.6 mph - N/A   Clear
3:15 AM 14.4 °F 6.9 °F 5.9 °F 69% 30.49 in 10.0 mi NW 4.6 mph - N/A   Clear
3:35 AM 14.0 °F 6.5 °F 5.5 °F 69% 30.50 in 10.0 mi NW 4.6 mph - N/A   Clear
3:55 AM 13.6 °F 6.0 °F 5.5 °F 70% 30.50 in 10.0 mi NW 4.6 mph - N/A   Clear
4:15 AM 13.1 °F 5.4 °F 5.0 °F 70% 30.51 in 10.0 mi NW 4.6 mph - N/A   Clear
4:35 AM 12.9 °F 6.9 °F 5.0 °F 71% 30.51 in 10.0 mi NW 3.5 mph - N/A   Clear
4:55 AM 12.6 °F 6.5 °F 4.8 °F 71% 30.51 in 10.0 mi NW 3.5 mph - N/A   Clear
5:15 AM 12.0 °F 4.1 °F 4.5 °F 72% 30.52 in 10.0 mi NW 4.6 mph - N/A   Clear
5:35 AM 11.7 °F - 4.5 °F 73% 30.52 in 10.0 mi Calm Calm - N/A   Clear
5:55 AM 11.1 °F 4.9 °F 4.1 °F 73% 30.53 in 10.0 mi NW 3.5 mph - N/A   Clear
6:15 AM 10.9 °F - 3.9 °F 73% 30.53 in 10.0 mi Calm Calm - N/A   Clear
6:35 AM 10.9 °F 2.9 °F 3.7 °F 73% 30.54 in 10.0 mi NW 4.6 mph - N/A   Clear
6:55 AM 11.1 °F 3.1 °F 3.6 °F 72% 30.54 in 10.0 mi NW 4.6 mph - N/A   Clear
7:15 AM 11.3 °F 5.1 °F 3.6 °F 71% 30.55 in 10.0 mi NW 3.5 mph - N/A   Clear
7:35 AM 11.8 °F 3.9 °F 3.4 °F 69% 30.56 in 10.0 mi NW 4.6 mph - N/A   Clear
7:55 AM 12.6 °F 4.8 °F 3.7 °F 68% 30.57 in 10.0 mi NW 4.6 mph - N/A   Clear
8:15 AM 13.1 °F 1.8 °F 3.6 °F 66% 30.58 in 10.0 mi NNW 8.1 mph - N/A   Clear
8:35 AM 13.5 °F 2.2 °F 3.7 °F 65% 30.58 in 10.0 mi NNW 8.1 mph - N/A   Clear
8:55 AM 13.8 °F 4.9 °F 4.1 °F 65% 30.58 in 10.0 mi NNW 5.8 mph - N/A   Clear
9:55 AM 14.9 °F 7.5 °F 3.9 °F 62% 30.60 in 10.0 mi NNW 4.6 mph - N/A   Clear
10:15 AM 15.4 °F 8.1 °F 3.9 °F 60% 30.59 in 10.0 mi NNW 4.6 mph - N/A   Clear
10:35 AM 15.8 °F 8.6 °F 3.7 °F 59% 30.59 in 10.0 mi NW 4.6 mph - N/A   Clear
10:55 AM 16.2 °F 9.0 °F 3.9 °F 59% 30.57 in 10.0 mi NW 4.6 mph - N/A   Clear
11:15 AM 16.3 °F 9.2 °F 3.4 °F 57% 30.57 in 10.0 mi NW 4.6 mph - N/A   Clear
11:35 AM 16.7 °F 8.3 °F 3.7 °F 57% 30.57 in 10.0 mi NW 5.8 mph - N/A   Clear
11:55 AM 17.6 °F 9.3 °F 4.1 °F 56% 30.57 in 10.0 mi NNW 5.8 mph - N/A   Clear
12:15 PM 17.8 °F 10.9 °F 3.4 °F 53% 30.56 in 10.0 mi NW 4.6 mph - N/A   Clear
12:35 PM 18.3 °F 11.5 °F 3.6 °F 53% 30.55 in 10.0 mi NNW 4.6 mph - N/A   Clear
12:55 PM 18.1 °F 8.9 °F 2.7 °F 51% 30.55 in 10.0 mi North 6.9 mph - N/A   Clear
1:15 PM 18.3 °F 13.1 °F 2.7 °F 51% 30.54 in 10.0 mi NW 3.5 mph - N/A   Clear
1:35 PM 18.5 °F 9.3 °F 2.7 °F 50% 30.54 in 10.0 mi NNW 6.9 mph - N/A   Clear
1:55 PM 18.5 °F 13.3 °F 1.9 °F 49% 30.53 in 10.0 mi NNW 3.5 mph - N/A   Clear
2:15 PM 18.7 °F 10.6 °F 2.8 °F 50% 30.53 in 10.0 mi North 5.8 mph - N/A   Clear
2:35 PM 19.0 °F 11.1 °F 3.0 °F 50% 30.53 in 10.0 mi North 5.8 mph - N/A   Clear
2:55 PM 18.7 °F 10.6 °F 2.7 °F 50% 30.52 in 10.0 mi North 5.8 mph - N/A   Clear
3:15 PM 18.7 °F 10.6 °F 2.3 °F 49% 30.52 in 10.0 mi North 5.8 mph - N/A   Clear
3:35 PM 18.5 °F 11.7 °F 1.8 °F 48% 30.52 in 10.0 mi NNW 4.6 mph - N/A   Clear
3:55 PM 18.1 °F 11.3 °F 1.9 °F 49% 30.52 in 10.0 mi North 4.6 mph - N/A   Clear
4:15 PM 17.6 °F 12.3 °F 2.1 °F 51% 30.52 in 10.0 mi NNW 3.5 mph - N/A   Clear
4:35 PM 17.4 °F - 2.3 °F 52% 30.52 in 10.0 mi Calm Calm - N/A   Clear
4:55 PM 16.5 °F - 2.8 °F 55% 30.53 in 10.0 mi Calm Calm - N/A   Clear
5:15 PM 16.2 °F - 2.3 °F 54% 30.53 in 10.0 mi Calm Calm - N/A   Clear
5:35 PM 15.4 °F - 3.0 °F 58% 30.53 in 10.0 mi Calm Calm - N/A   Clear
5:55 PM 14.9 °F - 3.2 °F 60% 30.53 in 10.0 mi Calm Calm - N/A   Clear
6:15 PM 14.0 °F - 3.6 °F 63% 30.52 in 10.0 mi Calm Calm - N/A   Clear
6:35 PM 13.3 °F - 4.3 °F 67% 30.52 in 10.0 mi Calm Calm - N/A   Clear
6:55 PM 12.2 °F - 5.2 °F 73% 30.53 in 10.0 mi Calm Calm - N/A   Clear
7:15 PM 11.5 °F - 5.5 °F 77% 30.52 in 10.0 mi Calm Calm - N/A   Clear
7:35 PM 11.3 °F - 5.0 °F 76% 30.50 in 10.0 mi Calm Calm - N/A   Clear
7:55 PM 11.1 °F - 4.6 °F 75% 30.50 in 5.0 mi Calm Calm - N/A   Haze
8:35 PM 10.0 °F - 6.8 °F 87% 30.50 in 10.0 mi Calm Calm - N/A   Clear
8:55 PM 8.8 °F - 5.5 °F 87% 30.50 in 10.0 mi Calm Calm - N/A   Clear
9:15 PM 9.5 °F - 6.3 °F 87% 30.50 in 10.0 mi Calm Calm - N/A   Clear
9:35 PM 9.5 °F - 5.4 °F 83% 30.49 in 10.0 mi Calm Calm - N/A   Clear
9:55 PM 9.3 °F - 5.7 °F 85% 30.50 in 10.0 mi Calm Calm - N/A   Clear
10:15 PM 8.8 °F - 5.7 °F 87% 30.48 in 10.0 mi Calm Calm - N/A   Clear
10:35 PM 8.6 °F - 7.0 °F 93% 30.47 in 10.0 mi Calm Calm - N/A   Clear
10:55 PM 8.6 °F - 6.1 °F 89% 30.47 in 10.0 mi Calm Calm - N/A   Clear
11:15 PM 8.1 °F - 5.9 °F 91% 30.47 in 10.0 mi Calm Calm - N/A   Clear
11:35 PM 7.5 °F - 5.5 °F 92% 30.47 in 10.0 mi Calm Calm - N/A   Clear
11:55 PM 8.1 °F - 6.3 °F 92% 30.46 in 10.0 mi Calm Calm - N/A   Clear